TimeCDT,TemperatureF,Dew PointF,Humidity,Sea Level PressureIn,VisibilityMPH,Wind Direction,Wind SpeedMPH,Gust SpeedMPH,PrecipitationIn,Events,Conditions,WindDirDegrees,DateUTC
12:49 AM,19.4,10.4,68,29.58,9.0,NW,28.8,49.5,0.00,Snow,Light Snow,310,2013-03-18 05:49:00
12:52 AM,19.9,10.9,68,29.66,8.0,NW,25.3,42.6,0.00,Snow,Light Snow,320,2013-03-18 05:52:00
1:52 AM,15.1,6.1,68,29.71,10.0,NW,28.8,43.7,0.00,,Partly Cloudy,310,2013-03-18 06:52:00
2:52 AM,12.9,3.9,67,29.74,10.0,NW,27.6,38.0,N/A,,Clear,310,2013-03-18 07:52:00
3:52 AM,12.0,3.0,67,29.77,10.0,NW,24.2,39.1,N/A,,Clear,310,2013-03-18 08:52:00
4:24 AM,12.2,3.2,67,29.70,7.0,NW,29.9,38.0,0.00,Snow,Light Snow,310,2013-03-18 09:24:00
4:52 AM,10.0,3.0,73,29.80,10.0,NW,25.3,31.1,0.00,,Overcast,310,2013-03-18 09:52:00
5:50 AM,8.6,-0.4,67,29.73,10.0,NW,29.9,40.3,N/A,,Partly Cloudy,310,2013-03-18 10:50:00
5:52 AM,8.1,-0.9,67,29.81,10.0,NW,31.1,40.3,N/A,,Partly Cloudy,310,2013-03-18 10:52:00
6:29 AM,8.6,-0.4,67,29.75,10.0,NW,29.9,39.1,N/A,,Mostly Cloudy,310,2013-03-18 11:29:00
6:52 AM,8.1,-2.0,64,29.84,10.0,NW,28.8,43.7,N/A,,Overcast,310,2013-03-18 11:52:00
7:04 AM,6.8,-2.2,67,29.77,10.0,NW,27.6,40.3,N/A,,Overcast,310,2013-03-18 12:04:00
7:32 AM,6.8,-2.2,67,29.79,10.0,NW,28.8,38.0,N/A,,Mostly Cloudy,310,2013-03-18 12:32:00
7:52 AM,7.0,-2.0,67,29.89,10.0,NW,28.8,35.7,N/A,,Mostly Cloudy,310,2013-03-18 12:52:00
8:15 AM,6.8,-2.2,67,29.81,10.0,NW,23.0,34.5,N/A,,Scattered Clouds,310,2013-03-18 13:15:00
8:52 AM,9.0,-0.9,64,29.90,10.0,NW,26.5,34.5,N/A,,Clear,310,2013-03-18 13:52:00
9:52 AM,10.0,1.0,67,29.90,10.0,NW,28.8,38.0,N/A,,Scattered Clouds,310,2013-03-18 14:52:00
10:31 AM,12.2,1.4,62,29.83,10.0,NW,32.2,39.1,N/A,,Mostly Cloudy,320,2013-03-18 15:31:00
10:52 AM,12.0,1.9,64,29.93,10.0,NW,32.2,40.3,N/A,,Overcast,310,2013-03-18 15:52:00
11:52 AM,14.0,3.9,64,29.95,10.0,NW,28.8,38.0,N/A,,Overcast,320,2013-03-18 16:52:00
12:52 PM,17.1,6.1,62,29.95,10.0,NNW,31.1,41.4,N/A,,Scattered Clouds,330,2013-03-18 17:52:00
1:32 PM,17.6,6.8,63,29.87,10.0,NW,27.6,38.0,N/A,,Mostly Cloudy,320,2013-03-18 18:32:00
1:52 PM,19.0,7.0,59,29.98,10.0,NW,27.6,40.3,N/A,,Mostly Cloudy,320,2013-03-18 18:52:00
2:08 PM,19.4,8.6,63,29.89,10.0,NW,28.8,35.7,N/A,,Overcast,320,2013-03-18 19:08:00
2:52 PM,19.9,7.0,57,29.98,10.0,NNW,26.5,38.0,N/A,,Scattered Clouds,330,2013-03-18 19:52:00
3:52 PM,21.0,9.0,60,29.99,10.0,NNW,21.9,28.8,N/A,,Partly Cloudy,340,2013-03-18 20:52:00
4:52 PM,21.9,9.0,58,30.00,10.0,NNW,18.4,24.2,N/A,,Partly Cloudy,330,2013-03-18 21:52:00
5:52 PM,23.0,9.0,55,30.01,10.0,NW,19.6,25.3,N/A,,Clear,320,2013-03-18 22:52:00
6:52 PM,21.9,8.1,55,30.02,10.0,NNW,12.7,20.7,N/A,,Clear,330,2013-03-18 23:52:00
7:52 PM,17.1,8.1,68,30.03,10.0,NNW,11.5,-,N/A,,Clear,340,2013-03-19 00:52:00
8:52 PM,12.0,5.0,73,30.05,10.0,North,4.6,-,N/A,,Clear,10,2013-03-19 01:52:00
9:52 PM,9.0,3.9,80,30.07,10.0,Calm,Calm,-,N/A,,Clear,0,2013-03-19 02:52:00
10:52 PM,7.0,3.0,84,30.08,10.0,Calm,Calm,-,N/A,,Clear,0,2013-03-19 03:52:00
11:52 PM,10.0,3.9,76,30.06,10.0,NNE,3.5,-,N/A,,Partly Cloudy,30,2013-03-19 04:52:00